Regional Weather Roundup
Issued by NWS Sterling, VA

Home | Current Version | Previous Version | Graphics & Text | Print | Product List | Glossary On
Versions: 1 2 3 4 5 6 7 8 9 10 11 12 13 14 15 16 17 18 19 20 21 22 23 24 25 26 27 28 29 30 31 32 33 34 35 36 37 38 39 40 41 42 43 44 45 46 47 48 49 50
000
ASUS41 KLWX 290410
RWRLWX

REGIONAL WEATHER ROUNDUP
NATIONAL WEATHER SERVICE BALTIMORE MD/WASHINGTON DC
1200 AM EDT TUE JUL 29 2014

Note: "FAIR" indicates few or no clouds below 12,000 feet
with no significant weather and/or obstructions to visibility.
 TC=TEMPERATURE CELSIUS

 * =Non NWS site. Station does not report precipitation (e.g. rain,
    snow, etc.), thunder, or fog.

DCZ001-MDZ009-015-VAZ040>042-051-053>054-290500-
WASHINGTON METRO
  /KDAA//-FT BELVOIR

CITY           SKY/WX    TMP DP  RH WIND       PRES   REMARKS
WASHINGTON NAT PTCLDY    72  57  59 NW12G23   29.83S
DULLES         PTCLDY    68  58  70 NW16      29.84S
ANDREWS AFB    CLEAR     70  59  68 NW14G21   29.82S
QUANTICO       CLEAR     70  57  63 NW13      29.84S
COLLEGE PARK*  CLEAR     72  59  64 NW7       29.82S
LEESBURG*      PTCLDY    68  61  77 NW10      29.86F
GAITHERSBURG*  CLEAR     64  57  77 NW8       29.88S

$$

MDZ006>007-011-014-290500-
BALTIMORE METRO

CITY           SKY/WX    TMP DP  RH WIND       PRES   REMARKS
BWI AIRPORT    PTCLDY    68  59  73 NW8       29.81S
MD SCIENCE CTR   N/A     71  58  63 MISG      29.81S
MARTIN STATE   PTCLDY    70  61  73 W15       29.81S
ANNAPOLIS      CLOUDY    72  61  68 NW7G16    29.80S
FORT MEADE*    MOCLDY    66  59  77 W5        29.84F

$$

MDZ012-015-019>023-290500-
MARYLAND EASTERN SHORE

CITY           SKY/WX    TMP DP  RH WIND       PRES   REMARKS
OCEAN CITY     CLEAR     71  59  65 W3        29.76R
SALISBURY      NOT AVBL
BAY BRIDGE AP*   N/A     72  59  64 NW10G20   29.80S
CAMBRIDGE*     PTCLDY    73  61  64 NW12G20   29.78S
EASTON*        MOCLDY    73  64  73 NW8       29.82F

$$

MDZ017>025-290500-
SOUTHERN MARYLAND

CITY           SKY/WX    TMP DP  RH WIND       PRES   REMARKS
PATUXENT RIVER CLEAR     72  58  61 NW14      29.80S
ST INIGOES     CLEAR     72  58  61 NW7       29.80R
LEONARDTOWN*   CLEAR     70  57  64 W6        29.83R

$$

MDZ003>005-290500-
NORTH CENTRAL MARYLAND

CITY           SKY/WX    TMP DP  RH WIND       PRES   REMARKS
FREDERICK*     MOCLDY    68  59  73 NW10      29.87S
HAGERSTOWN APT PTCLDY    66  56  70 NW9       29.86S
WESTMINSTER*   CLOUDY    66  63  88 W3        29.85R

$$

MDZ501>502-290500-
WESTERN MARYLAND

CITY           SKY/WX    TMP DP  RH WIND       PRES   REMARKS
OAKLAND*       CLOUDY    52 N/A N/A NW7       29.97S FOG
CUMBERLAND*    PTCLDY    63  52  67 NW3       29.95S

$$

VAZ025>031-290500-
SHENANDOAH VALLEY

CITY           SKY/WX    TMP DP  RH WIND       PRES   REMARKS
WINCHESTER*    PTCLDY    64  54  68 NW9       29.88F
STAUNTON*      CLEAR     62  53  72 SW3       29.94R

$$

WVZ021-048>050-054>055-290500-
EASTERN WEST VIRGINIA PANHANDLE

CITY           SKY/WX    TMP DP  RH WIND       PRES   REMARKS
MARTINSBURG    MOCLDY    67  54  63 W10       29.88F
PETERSBURG*    CLEAR     59  48  66 N3        29.94F

$$

VAZ036>039-050-290500-
CENTRAL FOOTHILLS

CITY           SKY/WX    TMP DP  RH WIND       PRES   REMARKS
CHARLOTTESVILL CLEAR     66  57  72 CALM      29.88S
ORANGE*        CLEAR     68  55  64 W6        29.88S

$$

VAZ055>057-290500-
NORTH AND CENTRAL PIEDMONT

CITY           SKY/WX    TMP DP  RH WIND       PRES   REMARKS
FREDERICKSBRG* CLEAR     71  59  66 NW5       29.84S
STAFFORD*      CLEAR     66  59  78 NW6       29.89S

$$

NCZ024-NYZ072-PAZ021-071-VAZ022-071-290500-
OTHER REGIONAL OBSERVATIONS

CITY           SKY/WX    TMP DP  RH WIND       PRES   REMARKS
NEW YORK CITY  PTCLDY    69  56  62 VRB6      29.72S
PHILADELPHIA   MOCLDY    71  59  65 NW12      29.76S
PITTSBURGH     CLEAR     57  52  83 NW6       29.96S
ROANOKE        PTCLDY    67  54  63 W6        29.95S
RICHMOND       PTCLDY    73  56  54 NW12      29.83S
RALEIGH        PTCLDY    72  57  59 CALM      29.88S

$$

ANZ530>537-290500-
MARINE OBSERVATIONS

STATION/POSITION TIME  TEMP    WIND        PRES
                       AIR SEA DIR/SP/G
                 (UTC) (F)     (DEG/KT/KT) (MB)
THOMAS PT LIGHT  0400   71 78  320/ 16/ 18 1009.6S
BALT KEY BRIDGE  0400          300/ 18/ 20 1009.0F
COVE POINT       0400   73     330/ 17/ 21 1008.9R
LEWISETTA        0400   74 79  320/ 13/ 16 1009.1R
SOLOMONS ISLAND  0400      80                N/A
PINEY POINT      0400          340/ 23/ 25   N/A

$$



USA.gov is the U.S. government's official web portal to all federal, state and local government web resources and services.